| time (UTC) | temp F | wind direction | speed MPH | gust MPH | rain 1hr in | rain 24hr in | rain mn in | humidity % | barometer mb |
| 20260506020605 | 51 | 16 | 3.0 | 5.0 | 0.00 | 0.01 | 0.00 | 79 | 1009.8 |
| 20260506015605 | 51 | 15 | 4.0 | 9.0 | 0.00 | 0.01 | 0.00 | 78 | 1009.8 |
| 20260506014605 | 51 | 12 | 4.0 | 7.0 | 0.00 | 0.01 | 0.00 | 78 | 1009.9 |
| 20260506014105 | 51 | 11 | 3.0 | 7.0 | 0.00 | 0.01 | 0.00 | 78 | 1009.8 |
| 20260506013605 | 51 | 10 | 3.0 | 7.0 | 0.00 | 0.01 | 0.00 | 78 | 1009.8 |
| 20260506012605 | 51 | 15 | 5.0 | 8.0 | 0.00 | 0.01 | 0.00 | 77 | 1009.8 |
| 20260506011605 | 52 | 8 | 3.0 | 12.0 | 0.00 | 0.01 | 0.00 | 77 | 1009.8 |
| 20260506010605 | 52 | 40 | 2.0 | 12.0 | 0.00 | 0.01 | 0.00 | 78 | 1009.8 |
| 20260506005105 | 52 | 34 | 5.0 | 9.0 | 0.00 | 0.01 | 0.00 | 78 | 1009.9 |
| 20260506004604 | 52 | 21 | 3.0 | 6.0 | 0.00 | 0.01 | 0.00 | 78 | 1009.9 |
| 20260506004105 | 52 | 24 | 5.0 | 12.0 | 0.00 | 0.01 | 0.00 | 78 | 1009.8 |
| 20260506003605 | 52 | 41 | 2.0 | 6.0 | 0.00 | 0.01 | 0.00 | 78 | 1009.8 |
| 20260506002106 | 53 | 53 | 5.0 | 9.0 | 0.00 | 0.01 | 0.00 | 77 | 1009.8 |
| 20260506000604 | 53 | 27 | 3.0 | 7.0 | 0.00 | 0.01 | 0.00 | 76 | 1009.8 |
| 20260505234604 | 53 | 16 | 5.0 | 8.0 | 0.00 | 0.01 | 0.00 | 76 | 1009.8 |
| 20260505234105 | 54 | 18 | 2.0 | 7.0 | 0.00 | 0.01 | 0.00 | 76 | 1009.8 |
| 20260505225105 | 54 | 38 | 5.0 | 9.0 | 0.00 | 0.01 | 0.01 | 74 | 1009.5 |
| 20260505223605 | 55 | 17 | 4.0 | 7.0 | 0.00 | 0.01 | 0.01 | 74 | 1009.6 |
| 20260505223104 | 55 | 11 | 5.0 | 9.0 | 0.00 | 0.01 | 0.01 | 74 | 1009.6 |
| 20260505222605 | 55 | 30 | 6.0 | 12.0 | 0.00 | 0.01 | 0.01 | 75 | 1009.6 |
| 20260505221605 | 55 | 10 | 3.0 | 7.0 | 0.00 | 0.01 | 0.01 | 74 | 1009.6 |
| 20260505221105 | 55 | 10 | 3.0 | 7.0 | 0.00 | 0.01 | 0.01 | 74 | 1009.6 |
| 20260505220605 | 55 | 10 | 2.0 | 6.0 | 0.00 | 0.01 | 0.01 | 73 | 1009.6 |
| 20260505220105 | 55 | 9 | 2.0 | 5.0 | 0.00 | 0.01 | 0.01 | 73 | 1009.6 |
| 20260505214605 | 55 | 9 | 5.0 | 7.0 | 0.00 | 0.01 | 0.01 | 72 | 1009.5 |
| 20260505213105 | 55 | 9 | 3.0 | 9.0 | 0.00 | 0.01 | 0.01 | 71 | 1009.5 |
| 20260505212105 | 55 | 355 | 2.0 | 7.0 | 0.00 | 0.02 | 0.01 | 71 | 1009.5 |
| 20260505211604 | 55 | 355 | 3.0 | 6.0 | 0.00 | 0.02 | 0.01 | 71 | 1009.5 |
| 20260505211104 | 55 | 347 | 4.0 | 7.0 | 0.00 | 0.02 | 0.01 | 71 | 1009.5 |
| 20260505210106 | 56 | 0 | 3.0 | 6.0 | 0.00 | 0.02 | 0.01 | 72 | 1009.5 |
| 20260505205604 | 56 | 0 | 2.0 | 6.0 | 0.00 | 0.02 | 0.01 | 72 | 1009.5 |
| 20260505204104 | 56 | 0 | 2.0 | 6.0 | 0.00 | 0.02 | 0.01 | 71 | 1009.4 |
| 20260505202605 | 56 | 0 | 3.0 | 6.0 | 0.00 | 0.02 | 0.01 | 71 | 1009.4 |
| 20260505201604 | 56 | 0 | 3.0 | 5.0 | 0.00 | 0.03 | 0.01 | 71 | 1009.4 |
| 20260505200105 | 57 | 0 | 1.0 | 3.0 | 0.00 | 0.03 | 0.01 | 71 | 1009.3 |
| 20260505194604 | 57 | 5 | 3.0 | 6.0 | 0.00 | 0.03 | 0.01 | 70 | 1009.1 |
| 20260505193105 | 57 | 9 | 2.0 | 6.0 | 0.00 | 0.03 | 0.01 | 70 | 1009.0 |
| 20260505191605 | 57 | 9 | 3.0 | 6.0 | 0.00 | 0.03 | 0.01 | 70 | 1008.9 |
| 20260505190605 | 57 | 10 | 2.0 | 8.0 | 0.00 | 0.03 | 0.01 | 69 | 1008.9 |
| 20260505185104 | 58 | 11 | 2.0 | 8.0 | 0.00 | 0.04 | 0.01 | 69 | 1008.9 |
| 20260505184605 | 58 | 7 | 5.0 | 12.0 | 0.00 | 0.04 | 0.01 | 69 | 1008.9 |
| 20260505183605 | 58 | 355 | 2.0 | 6.0 | 0.00 | 0.05 | 0.01 | 69 | 1008.8 |
| 20260505183105 | 58 | 355 | 3.0 | 8.0 | 0.00 | 0.05 | 0.01 | 69 | 1008.8 |
| 20260505182604 | 58 | 355 | 5.0 | 6.0 | 0.00 | 0.05 | 0.01 | 68 | 1008.8 |
| 20260505182106 | 58 | 355 | 3.0 | 8.0 | 0.00 | 0.05 | 0.01 | 68 | 1008.7 |
| 20260505175105 | 59 | 345 | 3.0 | 9.0 | 0.00 | 0.08 | 0.01 | 68 | 1008.7 |
| 20260505174104 | 59 | 318 | 4.0 | 7.0 | 0.00 | 0.10 | 0.01 | 70 | 1008.7 |
| 20260505173604 | 59 | 11 | 2.0 | 5.0 | 0.00 | 0.11 | 0.01 | 70 | 1008.7 |
| 20260505173105 | 59 | 11 | 3.0 | 5.0 | 0.00 | 0.12 | 0.01 | 70 | 1008.7 |
| 20260505172605 | 59 | 11 | 3.0 | 6.0 | 0.00 | 0.12 | 0.01 | 70 | 1008.7 |
| 20260505172104 | 59 | 11 | 1.0 | 3.0 | 0.00 | 0.13 | 0.01 | 70 | 1008.8 |
| 20260505171605 | 59 | 11 | 3.0 | 5.0 | 0.00 | 0.13 | 0.01 | 70 | 1008.8 |
| 20260505170605 | 59 | 12 | 3.0 | 5.0 | 0.00 | 0.13 | 0.01 | 69 | 1008.9 |
| 20260505163604 | 59 | 22 | 2.0 | 8.0 | 0.00 | 0.15 | 0.01 | 68 | 1008.9 |
| 20260505163105 | 60 | 15 | 4.0 | 7.0 | 0.00 | 0.15 | 0.01 | 68 | 1008.9 |
| 20260505162105 | 60 | 42 | 5.0 | 9.0 | 0.00 | 0.15 | 0.01 | 67 | 1008.9 |
| 20260505161605 | 60 | 26 | 5.0 | 8.0 | 0.00 | 0.15 | 0.01 | 67 | 1008.9 |
| 20260505160605 | 60 | 13 | 4.0 | 10.0 | 0.00 | 0.15 | 0.01 | 65 | 1008.9 |
| 20260505153105 | 60 | 17 | 4.0 | 6.0 | 0.00 | 0.15 | 0.01 | 68 | 1009.0 |
| 20260505152604 | 60 | 19 | 4.0 | 7.0 | 0.00 | 0.15 | 0.01 | 67 | 1009.0 |
| 20260505152105 | 60 | 26 | 4.0 | 8.0 | 0.00 | 0.15 | 0.01 | 67 | 1009.0 |
| 20260505151605 | 60 | 36 | 5.0 | 9.0 | 0.00 | 0.15 | 0.01 | 68 | 1009.0 |
| 20260505151105 | 60 | 22 | 6.0 | 9.0 | 0.00 | 0.15 | 0.01 | 66 | 1009.0 |
| 20260505150605 | 60 | 5 | 4.0 | 7.0 | 0.00 | 0.15 | 0.01 | 66 | 1009.1 |
| 20260505140605 | 61 | 7 | 6.0 | 10.0 | 0.00 | 0.15 | 0.01 | 66 | 1009.3 |
| 20260505124105 | 59 | 37 | 6.0 | 9.0 | 0.00 | 0.15 | 0.01 | 68 | 1009.5 |
| 20260505123605 | 59 | 27 | 6.0 | 9.0 | 0.00 | 0.15 | 0.01 | 68 | 1009.5 |
| 20260505122105 | 59 | 19 | 6.0 | 12.0 | 0.00 | 0.15 | 0.01 | 69 | 1009.6 |
| 20260505120105 | 59 | 17 | 6.0 | 12.0 | 0.00 | 0.15 | 0.01 | 69 | 1009.5 |
| 20260505114605 | 59 | 29 | 9.0 | 12.0 | 0.00 | 0.15 | 0.01 | 67 | 1009.6 |
| 20260505114104 | 60 | 33 | 6.0 | 16.0 | 0.00 | 0.15 | 0.01 | 67 | 1009.7 |
| 20260505112105 | 59 | 357 | 6.0 | 12.0 | 0.00 | 0.15 | 0.01 | 69 | 1009.8 |
| 20260505111605 | 60 | 7 | 9.0 | 16.0 | 0.00 | 0.15 | 0.01 | 67 | 1009.9 |
| 20260505111105 | 60 | 358 | 7.0 | 14.0 | 0.00 | 0.15 | 0.01 | 67 | 1009.8 |
| 20260505100107 | 57 | 31 | 5.0 | 12.0 | 0.00 | 0.14 | 0.00 | 76 | 1010.1 |
| 20260505095105 | 57 | 13 | 5.0 | 12.0 | 0.00 | 0.14 | 0.00 | 76 | 1010.1 |
| 20260505094604 | 57 | 29 | 8.0 | 13.0 | 0.00 | 0.14 | 0.00 | 76 | 1010.2 |
| 20260505093605 | 57 | 34 | 4.0 | 10.0 | 0.00 | 0.14 | 0.00 | 78 | 1010.2 |
| 20260505091605 | 56 | 26 | 5.0 | 13.0 | 0.00 | 0.14 | 0.00 | 82 | 1010.4 |
| 20260505091105 | 55 | 25 | 5.0 | 10.0 | 0.00 | 0.14 | 0.00 | 81 | 1010.4 |
| 20260505090605 | 55 | 35 | 6.0 | 12.0 | 0.00 | 0.14 | 0.00 | 82 | 1010.4 |
| 20260505090105 | 55 | 2 | 7.0 | 13.0 | 0.00 | 0.14 | 0.00 | 83 | 1010.4 |
| 20260505085604 | 55 | 353 | 4.0 | 12.0 | 0.00 | 0.14 | 0.00 | 83 | 1010.4 |
| 20260505085105 | 55 | 17 | 6.0 | 10.0 | 0.00 | 0.14 | 0.00 | 84 | 1010.4 |
| 20260505084105 | 54 | 22 | 7.0 | 13.0 | 0.00 | 0.14 | 0.00 | 84 | 1010.4 |
| 20260505083605 | 54 | 17 | 5.0 | 10.0 | 0.00 | 0.14 | 0.00 | 85 | 1010.4 |
| 20260505082605 | 54 | 17 | 6.0 | 12.0 | 0.00 | 0.14 | 0.00 | 86 | 1010.4 |
| 20260505082105 | 53 | 26 | 5.0 | 9.0 | 0.00 | 0.14 | 0.00 | 86 | 1010.4 |
| 20260505081104 | 53 | 5 | 7.0 | 12.0 | 0.00 | 0.14 | 0.00 | 87 | 1010.4 |
| 20260505080605 | 53 | 5 | 5.0 | 10.0 | 0.00 | 0.14 | 0.00 | 88 | 1010.4 |
| 20260505074605 | 52 | 33 | 5.0 | 10.0 | 0.00 | 0.14 | 0.00 | 89 | 1010.3 |
| 20260505074105 | 52 | 14 | 7.0 | 12.0 | 0.00 | 0.14 | 0.00 | 90 | 1010.3 |
| 20260505073605 | 52 | 31 | 5.0 | 8.0 | 0.00 | 0.14 | 0.00 | 90 | 1010.3 |
| 20260505073104 | 51 | 30 | 5.0 | 9.0 | 0.00 | 0.14 | 0.00 | 90 | 1010.3 |
| 20260505072605 | 51 | 13 | 5.0 | 12.0 | 0.00 | 0.14 | 0.00 | 91 | 1010.4 |
| 20260505070605 | 51 | 28 | 5.0 | 9.0 | 0.00 | 0.14 | 0.00 | 91 | 1010.5 |
| 20260505065605 | 51 | 18 | 5.0 | 9.0 | 0.00 | 0.14 | 0.00 | 92 | 1010.5 |
| 20260505065104 | 50 | 15 | 5.0 | 10.0 | 0.00 | 0.14 | 0.00 | 92 | 1010.5 |
| 20260505064605 | 50 | 16 | 5.0 | 9.0 | 0.00 | 0.14 | 0.00 | 92 | 1010.5 |
| 20260505064104 | 50 | 5 | 4.0 | 6.0 | 0.00 | 0.14 | 0.00 | 92 | 1010.6 |
| 20260505062604 | 49 | 5 | 2.0 | 5.0 | 0.00 | 0.14 | 0.00 | 92 | 1010.5 |
| 20260505062105 | 49 | 5 | 3.0 | 7.0 | 0.00 | 0.14 | 0.00 | 92 | 1010.5 |
| 20260505061105 | 49 | 5 | 3.0 | 7.0 | 0.00 | 0.14 | 0.00 | 92 | 1010.5 |
| 20260505060605 | 49 | 5 | 3.0 | 7.0 | 0.00 | 0.14 | 0.00 | 92 | 1010.5 |
| 20260505060105 | 49 | 5 | 5.0 | 7.0 | 0.00 | 0.14 | 0.00 | 92 | 1010.5 |
| 20260505055105 | 49 | 5 | 5.0 | 7.0 | 0.00 | 0.14 | 0.00 | 92 | 1010.5 |
| 20260505050105 | 49 | 23 | 3.0 | 6.0 | 0.00 | 0.14 | 0.00 | 92 | 1010.4 |
| 20260505041105 | 50 | 30 | 3.0 | 3.0 | 0.00 | 0.14 | 0.00 | 91 | 1010.7 |
| 20260505034604 | 51 | 30 | 2.0 | 3.0 | 0.00 | 0.14 | 0.00 | 91 | 1010.7 |
| 20260505034105 | 51 | 30 | 2.0 | 3.0 | 0.00 | 0.14 | 0.00 | 91 | 1010.6 |
| 20260505033605 | 51 | 30 | 0.0 | 2.0 | 0.00 | 0.14 | 0.00 | 91 | 1010.7 |
| 20260505033105 | 51 | 30 | 0.0 | 3.0 | 0.00 | 0.14 | 0.00 | 91 | 1010.7 |
| 20260505032605 | 51 | 30 | 3.0 | 5.0 | 0.00 | 0.14 | 0.00 | 91 | 1010.8 |
| 20260505025105 | 51 | 30 | 0.0 | 1.0 | 0.00 | 0.14 | 0.00 | 91 | 1010.7 |
| 20260505022105 | 51 | 30 | 0.0 | 0.0 | 0.00 | 0.14 | 0.00 | 91 | 1010.6 |